Zurück zum Katalog

DELTA 1 DEB

AktivPO
NORAD 26833·DEBRIS·🇺🇸 United States

Gestartet Jun 12, 1975 von Vandenberg Space Force Base

Loading…

Nächste Überflüge (nächste 24 Stunden)

TLE

AktuellSource: Space-Track

Epoche: Sep 14, 2026, 14:24 UTC

1 26833U 75052KM  26257.60054781  .00000136  00000-0  61661-3 0  9997
2 26833  99.7260 170.7249 0367347 130.7486 350.1298 12.73627094661019

Verfolge DELTA 1 DEB in Echtzeit mit AllMySat

Download on the App Store